Regional Weather Roundup
Issued by NWS

Home | Current Version | Previous Version | Graphics & Text | Print | Product List | Glossary On
Versions: 1 2 3 4 5 6 7 8 9 10 11 12 13 14 15 16 17 18 19 20 21 22 23 24 25 26 27 28 29 30 31 32 33 34 35 36 37 38 39 40 41 42 43 44 45 46 47 48 49 50
000
ASUS44 KMEG 031300
RWRTN
TENNESSEE HOURLY STATE WEATHER ROUNDUP
NATIONAL WEATHER SERVICE MEMPHIS TN
800 AM CDT SUN MAY 03 2015

TNZ002-004-019-021-049-052-054-088>092-031400-
WEST TENNESSEE

CITY           SKY/WX    TMP DP  RH WIND       PRES   REMARKS
MEMPHIS INTL   MOSUNNY   63  52  67 S5        30.09R
NWS MEMPHIS      N/A    N/A N/A N/A MISG        N/A
JACKSON        PTSUNNY   57  52  83 CALM      30.11R
DYERSBURG      PTSUNNY   61  43  51 CALM      30.11R
PARIS          SUNNY     54  48  82 CALM      30.11R
LEXINGTON      SUNNY     55  52  88 CALM      30.11R
$$

TNZ008-025-027-028-033-062-065-066-031400-
NORTH MIDDLE TENNESSEE

CITY           SKY/WX    TMP DP  RH WIND       PRES   REMARKS
NASHVILLE      MOSUNNY   58  50  75 CALM      30.14R
CLARKSVILLE    MOSUNNY   57  51  80 CALM      30.12R
COOKEVILLE     SUNNY     57  50  77 CALM      30.14S
CROSSVILLE     SUNNY     59  48  67 CALM      30.18R
$$

TNZ061-075-076-078-094-096-097-031400-
SOUTH MIDDLE TENNESSEE

CITY           SKY/WX    TMP DP  RH WIND       PRES   REMARKS
FAYETTEVILLE   SUNNY     57  50  77 CALM      30.15R
COLUMBIA       SUNNY     55  52  88 CALM      30.12R
$$

TNZ017-018-042-046-047-031400-
NORTHEAST TENNESSEE

CITY           SKY/WX    TMP DP  RH WIND       PRES   REMARKS
TRI CITIES     MOSUNNY   52  43  71 MISG      30.21R
ELIZABETHTON   SUNNY     54  41  62 VRB3      30.20S
$$

TNZ012-013-036-069-073-074-031400-
CENTRAL EAST TENNESSEE

CITY           SKY/WX    TMP DP  RH WIND       PRES   REMARKS
KNOXVILLE      SUNNY     54  47  77 CALM      30.17S
OAK RIDGE      SUNNY     54  48  80 E3        30.19R
GATLINBURG     SUNNY     54  45  71 CALM      30.18S
$$

TNZ083-085-099-031400-
SOUTHEAST TENNESSEE

CITY           SKY/WX    TMP DP  RH WIND       PRES   REMARKS
CHATTANOOGA    SUNNY     58  51  78 CALM      30.18R
$$

SKY/WX REPORTED AS FAIR MEANS FEW OR NO CLOUDS BELOW
12 THOUSAND FEET.



USA.gov is the U.S. government's official web portal to all federal, state and local government web resources and services.